Location: Brachbach
(49.1847°N, 9.7240°E)
Time: 06:03:43
(UTC+00:00)

PCSat - Pass Details

Date: 12 March 2026
Orbit: 780 x 790 km, 67.1° (Epoch: 13 April)

Event Time Altitude Azimuth Distance (km) Brightness Sun altitude
Exits shadow 23:54:15 13° 23° (NNE) 2,162 12.4 -43.5°
Drops below altitude 10° 23:54:51 10° 25° (NNE) 2,363 12.6 -43.5°
Sets 23:57:26 0° 34° (NE) 3,296 13.5 -43.5°
